Location: Newark
(42.7133°N, 87.7910°W)
Time: 01:44:07
(UTC+00:00)

Vanguard 1 - Pass Details

Date: 23 September 2019
Orbit: 653 x 3830 km, 34.2° (Epoch: 17 October)

Event Time Altitude Azimuth Distance (km) Brightness Sun altitude
Rises 03:02:08 0° 167° (SSE) 6,895 - -34.0°
Reaches altitude 10° 03:12:49 10° 139° (SE) 6,566 - -35.5°
Maximum altitude 03:18:13 11° 124° (SE) 6,656 - -36.2°
Drops below altitude 10° 03:23:48 10° 109° (ESE) 6,908 - -37.0°
Exits shadow 03:34:36 - 86° (E) 7,747 14.3 -38.3°
Sets 03:35:54 0° 84° (E) 7,870 14.4 -38.5°
